Weather Roundup
Issued by NWS Springfield, MO

Home | Current Version | Previous Version | Text Only | Print | Product List | Glossary On
Versions: 1 2 3 4 5 6 7 8 9 10 11 12 13 14 15 16 17 18 19 20 21 22 23 24 25 26 27 28 29 30 31 32 33 34 35 36 37 38 39 40 41 42 43 44 45 46 47 48 49 50
000
NZUS99 KSGF 030557
HRRSGF

HOURLY WEATHER
NATIONAL WEATHER SERVICE SPRINGFIELD MO
1200 AM CST SAT DEC 03 2016

......SGF CWA......

CITY           SKY/WX    TMP DP  RH WIND       PRES   REMARKS
SPRINGFIELD    CLOUDY    46  25  43 E7        30.29S
6HR MIN TEMP:  45; 6HR MAX TEMP:  50;

JOPLIN         CLOUDY    47  27  45 E7        30.30
6HR MIN TEMP:  46; 6HR MAX TEMP:  52;


......SURROUNDING SGF CWA......

CITY           SKY/WX    TMP DP  RH WIND       PRES   REMARKS
CHANUTE        CLOUDY    44  27  51 NE8       30.31S
PARSONS        CLOUDY    44  30  57 NE6       30.31R
COFFEYVILLE    CLOUDY    47  30  51 NE10      30.29S
HARRISON AR    CLOUDY    45  32  60 SE3       30.29R

......KANSAS AND MISSOURI......

CITY           SKY/WX    TMP DP  RH WIND       PRES   REMARKS
KANSAS CTY INT NOT AVBL
ST JOSEPH      NOT AVBL
ST LOUIS       PTCLDY    35  28  75 CALM      30.38R

......TENNESSEE......

CITY           SKY/WX    TMP DP  RH WIND       PRES   REMARKS
MEMPHIS        NOT AVBL
NASHVILLE      CLOUDY    42  30  62 N6        30.34S

......ARKANSAS.......

CITY           SKY/WX    TMP DP  RH WIND       PRES   REMARKS
FAYETTEVILLE   CLOUDY    44  36  73 CALM      30.27R
FT SMITH       CLOUDY    50  36  58 E5        30.26R
LITTLE ROCK    CLOUDY    47  39  74 N3        30.29R

......OKLAHOMA.......

CITY           SKY/WX    TMP DP  RH WIND       PRES   REMARKS
TULSA          NOT AVBL
MCALESTER      LGT RAIN  48  43  82 CALM      30.25R
OKLAHOMA CITY  CLOUDY    47  45  93 NE7       30.24F

......IOWA............

CITY           SKY/WX    TMP DP  RH WIND       PRES   REMARKS
DES MOINES     NOT AVBL
QUAD CITIES    MOCLDY    34  25  69 N8        30.32F WCI  27

......ILLINOIS........

CITY           SKY/WX    TMP DP  RH WIND       PRES   REMARKS
QUINCY         NOT AVBL
CHICAGO        CLOUDY    34  23  64 W7        30.30F WCI  28



USA.gov is the U.S. government's official web portal to all federal, state and local government web resources and services.